Flag for Poland Weather past 2 weeks in Jastrzębie Zdrój, Poland

Now
38 °F

Overcast.


Feels Like: 33 °F
Forecast: 34 / 42 °F
Wind: 6 mph from Southwest

Location: Ostrava / Mosnov

Current Time: Mar 2, 2015 at 2:06:49 AM

Latest Report: Mar 2, 2015 at 1:00 AM


Visibility: 9 mi

Pressure: 29.79 "Hg

Humidity: 86%

Dew point: 34 °F

Location of Jastrzębie ZdrójLocation

Historic Weather in Jastrzębie Zdrój — Graph

°F

Jastrzębie Zdrój temperature yesterday

Maximum temperature yesterday: 49 °F (at 1:00 PM)
Minimum temperature yesterday: 31 °F (at 8:00 AM)
Average temperature yesterday: 40 °F

Past Weeks' High & Low Weather Summary

 TemperatureHumidityPressure
High49 °F (Feb 15, 2:00 PM)98% (Feb 27, 12:00 AM)30.78 "Hg (Feb 27, 12:00 AM)
Low20 °F (Feb 17, 6:00 AM)42% (Feb 15, 2:00 PM)29.57 "Hg (Feb 23, 5:00 PM)
Average37 °F81%30.10 "Hg
* Reported Feb 15 1:00 AM — Mar 2 1:00 AM, Jastrzębie Zdrój, Weather by CustomWeather, © 2015

Note: Actual official high and low records may vary slightly from our data, if they occured in-between our weather recording intervals... More about our weather records

Advertising

Jastrzębie Zdrój weather history for previous 24 hours

 ConditionsComfort  
Time TempWeatherWind HumidityBarometerVisibility
1:00 AM
Mon, Mar 2
38 °FOvercast.6 mph86%29.79 "Hg9 mi
12:00 AM42 °FOvercast.7 mph84%29.79 "Hg9 mi
11:00 PM
Sun, Mar 1
42 °FOvercast.6 mph80%29.80 "Hg9 mi
9:00 PM43 °FOvercast.10 mph79%29.80 "Hg9 mi
8:00 PM43 °FOvercast.10 mph81%29.81 "Hg7 mi
7:00 PM44 °FOvercast.8 mph79%29.79 "Hg7 mi
6:00 PM45 °FLight rain. Overcast.8 mph70%29.79 "Hg6 mi
5:00 PM45 °FOvercast.8 mph67%29.81 "Hg12 mi
4:00 PM46 °FOvercast.12 mph61%29.80 "Hg12 mi
3:00 PM47 °FOvercast.13 mph57%29.81 "Hg12 mi
2:00 PM48 °FOvercast.10 mph55%29.81 "Hg12 mi
1:00 PM49 °FOvercast.12 mph52%29.83 "Hg12 mi
12:00 PM48 °FOvercast.12 mph58%29.86 "Hg12 mi
11:00 AM40 °FFog.N/A91%29.91 "Hg4 mi
10:00 AM35 °FFog.N/A97%29.95 "Hg0 mi
9:00 AM32 °FFog.N/A98%29.98 "Hg0 mi
8:00 AM31 °FFog.2 mph98%30.00 "Hg0 mi
7:00 AM31 °FFog.2 mph98%30.01 "Hg0 mi
6:00 AM31 °FFog.2 mph97%30.03 "Hg0 mi
5:00 AM32 °FFog.1 mph97%30.03 "Hg0 mi
3:00 AM34 °FFog.1 mph96%30.05 "Hg1 mi
2:00 AM36 °FFog.1 mph96%30.08 "Hg2 mi
Weather by CustomWeather, © 2015

See weather overviewHow to use our weather pages